Location: American Medical Response
(33.3472°N, 96.5511°W)
Time: 09:31:35
(UTC+00:00)

H-2A R/B - Pass Details

Date: 08 July 2022
Orbit: 576 x 652 km, 98.5° (Epoch: 13 August)

Event Time Altitude Azimuth Distance (km) Brightness Sun altitude
Rises 02:51:35 0° 9° (N) 2,958 6.0 -13.5°
Reaches altitude 10° 02:53:48 10° 7° (N) 2,051 5.2 -13.9°
Maximum altitude 02:58:15 67° 285° (WNW) 704 2.5 -14.6°
Drops below altitude 10° 03:02:42 10° 203° (SSW) 2,049 4.5 -15.3°
Sets 03:04:54 0° 200° (SSW) 2,955 5.3 -15.6°
